This demonstration page uses our WeatherBlox Daily Observations layout. Learn more.

Left ArrowRight Arrow

39.51506, -84.39828

Hourly Observations for March 2, 2018

Temp ( °F °C ) Dew Point ( °F °C ) Humidity (%) Winds ( mph kmh ) Pressure ( in mb ) Visibility ( mi km ) Precip ( " mm )
12:15 am 00:15 Mostly Cloudy 39 3.7 32 -0.2 76 76 NW 10 17 30.15 1021 10 16.0934 N/A
12:35 am 00:35 Clear 37 2.9 31 -0.5 79 79 NW 9 15 30.18 1022 10 16.0934 N/A
12:55 am 00:55 Partly Cloudy 37 2.7 31 -0.6 79 79 NNW 8 13 30.18 1022 10 16.0934 N/A
1:15 am 01:15 Cloudy 37 3 32 0.1 81 81 NW 10 17 30.18 1022 10 16.0934 N/A
1:35 am 01:35 Cloudy 37 2.7 31 -0.3 81 81 NW 10 17 30.21 1023 10 16.0934 N/A
1:55 am 01:55 Cloudy 37 2.6 31 -0.3 81 81 NW 9 15 30.21 1023 10 16.0934 N/A
2:15 am 02:15 Cloudy 36 2.4 31 -0.6 81 81 NW 6 9 30.21 1023 10 16.0934 N/A
2:35 am 02:35 Mostly Cloudy 36 2.1 30 -1 80 80 NNW 8 13 30.21 1023 10 16.0934 N/A
2:55 am 02:55 Partly Cloudy 35 1.5 30 -1.3 82 82 WNW 7 11 30.21 1023 10 16.0934 N/A
3:15 am 03:15 Partly Cloudy 34 0.9 29 -1.7 83 83 WNW 6 9 30.24 1024 10 16.0934 N/A
3:35 am 03:35 Clear 33 0.5 28 -2.3 82 82 WNW 6 9 30.24 1024 10 16.0934 N/A
3:55 am 03:55 Clear 33 0.4 27 -2.8 79 79 WNW 7 11 30.24 1024 10 16.0934 N/A
4:15 am 04:15 Clear 33 0.4 27 -2.8 79 79 WNW 6 9 30.24 1024 10 16.0934 N/A
4:35 am 04:35 Clear 33 0.4 27 -2.8 79 79 NW 6 9 30.24 1024 10 16.0934 N/A
4:55 am 04:55 Clear 33 0.3 27 -2.8 80 80 NW 9 15 30.27 1025 10 16.0934 N/A
5:15 am 05:15 Clear 33 0.3 27 -2.8 80 80 NW 8 13 30.27 1025 10 16.0934 N/A
5:35 am 05:35 Clear 33 0.3 27 -2.9 79 79 NW 8 13 30.27 1025 10 16.0934 N/A
5:55 am 05:55 Clear 32 0.2 27 -3 79 79 NNW 9 15 30.27 1025 10 16.0934 N/A
6:15 am 06:15 Clear 32 0.2 27 -3 79 79 NW 9 15 30.3 1026 10 16.0934 N/A
6:35 am 06:35 Clear 32 0.2 26 -3.1 79 79 NNW 10 17 30.3 1026 10 16.0934 N/A
6:55 am 06:55 Clear 32 undefined 26 -3.1 80 80 NNW 6 9 30.3 1026 10 16.0934 N/A
7:15 am 07:15 Sunny 32 0.2 26 -3.1 79 79 NNW 7 11 30.3 1026 10 16.0934 N/A
7:35 am 07:35 Sunny 33 0.3 26 -3.1 78 78 N 8 13 30.33 1027 10 16.0934 N/A
7:55 am 07:55 Sunny 33 0.8 27 -2.9 77 77 NNW 9 15 30.33 1027 10 16.0934 N/A
8:15 am 08:15 Sunny 34 1.2 28 -2.5 77 77 NNW 9 15 30.33 1027 10 16.0934 N/A
8:35 am 08:35 Sunny 35 1.6 28 -2.1 77 77 NNW 9 15 30.36 1028 10 16.0934 N/A
8:55 am 08:55 Sunny 36 2 28 -2.1 75 75 N 15 24 30.36 1028 10 16.0934 N/A
9:15 am 09:15 Sunny 37 2.6 28 -2 72 72 N 16 26 30.36 1028 10 16.0934 N/A
9:35 am 09:35 Sunny 38 3.1 29 -1.9 70 70 NNW 13 20 30.36 1028 10 16.0934 N/A
9:55 am 09:55 Sunny 39 3.7 29 -1.7 68 68 N 9 15 30.36 1028 10 16.0934 N/A
10:15 am 10:15 Sunny 39 3.9 28 -2.5 63 63 NNW 13 20 30.39 1029 10 16.0934 N/A
10:35 am 10:35 Sunny 40 4.5 28 -2.1 63 63 N 12 19 30.39 1029 10 16.0934 N/A
10:55 am 10:55 Sunny 41 4.9 28 -2.2 60 60 NNW 10 17 30.39 1029 10 16.0934 N/A
11:15 am 11:15 Sunny 42 5.5 28 -2.5 57 57 NNW 13 20 30.42 1030 10 16.0934 N/A
11:35 am 11:35 Sunny 42 5.8 28 -2.2 57 57 NNW 14 22 30.39 1029 10 16.0934 N/A
11:55 am 11:55 Sunny 43 5.9 28 -2.3 56 56 N 8 13 30.42 1030 10 16.0934 N/A
12:15 pm 12:15 Partly Cloudy 43 6.2 28 -2.1 56 56 N 12 19 30.42 1030 10 16.0934 N/A
12:35 pm 12:35 Partly Cloudy 44 6.4 28 -2.3 54 54 NNW 17 28 30.42 1030 10 16.0934 N/A
12:50 pm 12:50 Sunny 44 6.4 26 -3.4 50 50 N 13 20 30.42 1030 10 16.0934 N/A
1:15 pm 13:15 Sunny 45 7.1 27 -2.8 50 50 NNE 14 22 30.42 1030 10 16.0934 N/A
1:35 pm 13:35 Sunny 45 7 24 -4.2 45 45 NNW 16 26 30.42 1030 10 16.0934 N/A
1:55 pm 13:55 Sunny 46 7.5 23 -4.8 42 42 N 14 22 30.39 1029 10 16.0934 N/A
2:15 pm 14:15 Sunny 45 7.2 25 -4 45 45 N 14 22 30.39 1029 10 16.0934 N/A
2:35 pm 14:35 Sunny 46 7.7 25 -3.8 44 44 N 16 26 30.39 1029 10 16.0934 N/A
2:55 pm 14:55 Sunny 46 8 24 -4.5 41 41 NNW 13 20 30.39 1029 10 16.0934 N/A
3:15 pm 15:15 Sunny 46 7.5 24 -4.5 43 43 NNE 13 20 30.39 1029 10 16.0934 N/A
3:35 pm 15:35 Partly Cloudy 46 7.8 25 -3.8 44 44 N 10 17 30.39 1029 10 16.0934 N/A
3:55 pm 15:55 Partly Cloudy 47 8.1 25 -4.1 42 42 N 9 15 30.39 1029 10 16.0934 N/A
4:15 pm 16:15 Partly Cloudy 46 7.5 24 -4.7 42 42 NNW 10 17 30.39 1029 10 16.0934 N/A
4:35 pm 16:35 Partly Cloudy 46 8 24 -4.4 42 42 N 15 24 30.39 1029 10 16.0934 N/A
4:55 pm 16:55 Partly Cloudy 46 7.6 24 -4.3 43 43 N 14 22 30.39 1029 10 16.0934 N/A
5:15 pm 17:15 Partly Cloudy 46 7.5 25 -3.7 45 45 N 14 22 30.39 1029 10 16.0934 N/A
5:35 pm 17:35 Sunny 44 6.9 23 -5.1 42 42 NNE 13 20 30.42 1030 10 16.0934 N/A
5:55 pm 17:55 Sunny 44 6.4 24 -4.6 46 46 N 14 22 30.42 1030 10 16.0934 N/A
6:15 pm 18:15 Sunny 43 6 23 -5 46 46 N 8 13 30.42 1030 10 16.0934 N/A
6:35 pm 18:35 Clear 41 4.9 24 -4.5 51 51 N 6 9 30.42 1030 10 16.0934 N/A
6:55 pm 18:55 Clear 40 4.6 24 -4.2 53 53 N 5 7 30.45 1031 10 16.0934 N/A
7:15 pm 19:15 Clear 40 4.5 25 -3.9 55 55 NNW 3 6 30.45 1031 10 16.0934 N/A
7:35 pm 19:35 Clear 40 4.2 26 -3.6 57 57 N N/A 30.45 1031 10 16.0934 N/A
7:55 pm 19:55 Clear 38 3.3 28 -2.4 67 67 N N/A 30.45 1031 10 16.0934 N/A
8:15 pm 20:15 Clear 36 2.1 29 -1.7 76 76 N N/A 30.45 1031 10 16.0934 N/A
8:35 pm 20:35 Clear 35 1.5 29 -1.5 81 81 N N/A 30.45 1031 10 16.0934 N/A
8:55 pm 20:55 Clear 33 0.3 28 -2.4 82 82 N N/A 30.45 1031 10 16.0934 N/A
9:15 pm 21:15 Clear 32 0.2 28 -2.1 85 85 NNE 3 6 30.45 1031 10 16.0934 N/A
9:35 pm 21:35 Clear 32 undefined 28 -2.3 85 85 N N/A 30.45 1031 10 16.0934 N/A
9:55 pm 21:55 Clear 32 -0.2 27 -2.6 84 84 N N/A 30.45 1031 10 16.0934 N/A
10:15 pm 22:15 Clear 31 -0.7 28 -2.5 88 88 N N/A 30.45 1031 10 16.0934 N/A
10:35 pm 22:35 Clear 30 -1.1 26 -3.3 85 85 N N/A 30.45 1031 10 16.0934 N/A
10:55 pm 22:55 Clear 31 -0.5 28 -2.3 88 88 N N/A 30.45 1031 10 16.0934 N/A
11:15 pm 23:15 Clear 30 -0.9 28 -2.2 91 91 N N/A 30.48 1032 10 16.0934 N/A
11:35 pm 23:35 Clear 28 -2.1 26 -3.2 92 92 N N/A 30.48 1032 10 16.0934 N/A
11:55 pm 23:55 Clear 29 -1.8 26 -3.1 91 91 N N/A 30.48 1032 10 16.0934 N/A

Powered by AerisWeather